Location: Ladrillo (historical)
(32.8195°N, 117.2231°W)
Time: 21:59:25
(UTC+00:00)

Tiangong - Pass Details

Date: 05 October 2021
Orbit: 382 x 385 km, 41.5° (Epoch: 19 October)

Event Time Altitude Azimuth Distance (km) Brightness Sun altitude
Exits shadow 12:21:24 22° 348° (NNW) 902 2.8 -18.6°
Maximum altitude 12:22:17 25° 16° (NNE) 819 2.9 -18.4°
Drops below altitude 10° 12:24:57 10° 74° (ENE) 1,392 5.1 -17.8°
Sets 12:27:15 0° 88° (E) 2,243 6.7 -17.4°
